Regional Weather Roundup
Issued by NWS

Home | Current Version | Previous Version | Graphics & Text | Print | Product List | Glossary On
Versions: 1 2 3 4 5 6 7 8 9 10 11 12 13 14 15 16 17 18 19 20 21 22 23 24 25 26 27 28 29 30 31 32 33 34 35 36 37 38 39 40 41 42 43 44 45 46 47 48 49 50
000
ASUS43 KOAX 310402
RWRNE

WEATHER ROUNDUP FOR NEBRASKA
NATIONAL WEATHER SERVICE OMAHA NE
1100 PM CDT THU OCT 30 2014

NOTES: SATELLITE DATA IS BEING USED TO AUGMENT CLOUD COVER ABOVE
       12000 FEET.
       "FAIR" INDICATES FEW OR NO CLOUDS BELOW 12,000 FEET WITH NO
       SIGNIFICANT WEATHER AND/OR OBSTRUCTIONS TO VISIBILITY.

  * THESE STATIONS DO NOT REPORT WEATHER SUCH AS RAIN...SNOW OR FOG.

NEZ001>004-019>022-054>056-310500-
NEBRASKA PANHANDLE

CITY           SKY/WX    TMP DP  RH WIND       PRES   REMARKS
SCOTTSBLUFF    CLEAR     37  31  78 E7        30.43R WCI  32
ALLIANCE       CLEAR     31  27  85 CALM      30.43R
CHADRON        CLEAR     32  28  85 NE3       30.45R
KIMBALL        CLEAR     37  30  77 E5        30.40R WCI  33
SIDNEY         CLEAR     32  26  78 E8        30.42R WCI  25
$$

NEZ057>060-069>072-079>082-310500-
SOUTHWEST NEBRASKA

CITY           SKY/WX    TMP DP  RH WIND       PRES   REMARKS
NORTH PLATTE   CLEAR     37  30  75 NE8       30.43R WCI  31
IMPERIAL       CLEAR     41  29  62 NE8       30.42R
LEXINGTON      CLEAR     40  33  77 N10       30.43R WCI  34
MCCOOK         CLEAR     42  32  67 NE9       30.41R
OGALLALA       CLEAR     41  32  70 NE10      30.43R
$$

NEZ005>010-023>029-035>040-094-310500-
NORTH CENTRAL NEBRASKA

CITY           SKY/WX    TMP DP  RH WIND       PRES   REMARKS
VALENTINE      CLEAR     33  28  81 NE10      30.49R WCI  25
AINSWORTH      CLEAR     32  29  89 NE12      30.47R WCI  23
BROKEN BOW     CLEAR     36  32  85 N8        30.42R WCI  30
O`NEILL        PTCLDY    35  31  88 N13       30.47R WCI  26
ORD            CLEAR     33  29  85 NW7       30.43R WCI  27
THEDFORD       CLEAR     33  30  90 CALM      30.46R
$$

NEZ041-046>049-061>064-073>077-083>087-310500-
SOUTH CENTRAL NEBRASKA

CITY           SKY/WX    TMP DP  RH WIND       PRES   REMARKS
GRAND ISLAND   MOCLDY    41  34  76 N13       30.41R
AURORA         MOCLDY    41  32  70 N16G25    30.40R
HASTINGS       MOCLDY    41  33  73 N15       30.39R
HEBRON         CLOUDY    45  36  70 N18G24    30.37R
HOLDREGE       CLEAR     40  32  74 N14       30.41R WCI  32
KEARNEY *      CLEAR     37  32  81 NW12      30.42R WCI  30
YORK           CLOUDY    43  36  75 N22G29    30.38R
$$

NEZ011>018-030>034-042>045-310500-
NORTHEAST NEBRASKA

CITY           SKY/WX    TMP DP  RH WIND       PRES   REMARKS
NORFOLK        CLOUDY    40  30  67 N23G29    30.42R WCI  30
ALBION         CLEAR     38  31  74 N8G17     30.42R WCI  32
BLAIR          CLOUDY    44  34  68 N22G31    30.34R
FREMONT        CLOUDY    46  35  67 N14G23    30.37R
TEKAMAH        CLOUDY    42  31  64 N30G39    30.38R
WAYNE          CLOUDY    40  31  70 N17G25    30.42R WCI  31
$$

NEZ050>053-065>068-078-088>093-310500-
SOUTHEAST NEBRASKA

CITY           SKY/WX    TMP DP  RH WIND       PRES   REMARKS
LINCOLN        CLOUDY    47  37  68 N29       30.36R
OMAHA EPPLEY   CLOUDY    45  35  68 N25G32    30.35R
BEATRICE       CLOUDY    46  39  77 N21G28    30.33R
FALLS CITY     LGT RAIN  49  40  71 NW14G23   30.26R
NEBRASKA CITY  CLOUDY    48  36  61 N17G23    30.29R
PLATTSMOUTH    CLOUDY    47  37  69 N16G26    30.31R
$$

NEZ044-045-051>053-067-310500-
OMAHA AREA

CITY           SKY/WX    TMP DP  RH WIND       PRES   REMARKS
OMAHA EPPLEY   CLOUDY    45  35  68 N25G32    30.35R
BLAIR          CLOUDY    44  34  68 N22G31    30.34R
FREMONT        CLOUDY    46  35  67 N14G23    30.37R
MILLARD        CLOUDY    46  36  68 N14G25    30.34R
OFFUTT AFB     CLOUDY    47  38  71 N20G26    30.32R
PLATTSMOUTH    CLOUDY    47  37  69 N16G26    30.31R
WAHOO          CLOUDY    46  35  66 N14G23    30.36R
$$



USA.gov is the U.S. government's official web portal to all federal, state and local government web resources and services.